Location: ActonStarParty
(42.4766°N, 71.4538°W)
Time: 02:42:26
(UTC-05:00)

ATLAS 5 CENTAUR R/B - Visible Passes

Search period start: 09 February 2016 00:00
Search period end: 19 February 2016 00:00
Orbit: 253 x 14826 km, 60.8° (Epoch: 06 February)

Date Brightness Start Highest point End Pass type
(mag) Time Alt. Az. Time Alt. Az. Time Alt. Az.
09 Feb 7.4 04:39:00 10° NW 06:44:49 82° WSW 07:07:13 10° SSE visible
09 Feb 7.9 17:18:41 10° ESE 18:16:00 29° ENE 19:32:40 10° NNE visible
09 Feb 7.9 21:38:53 10° SSW 22:45:52 84° WNW 00:48:36 10° ENE visible
10 Feb 7.7 02:55:09 10° WNW 05:17:44 78° NE 05:46:08 10° SE visible
10 Feb 8.3 16:26:56 10° ENE 17:08:51 16° NE 17:54:03 10° NNE visible
10 Feb 7.8 20:17:56 10° S 21:16:46 77° ESE 23:19:20 10° NE visible
11 Feb 8.2 01:16:23 10° W 03:41:02 66° NNE 04:23:08 10° ESE visible
11 Feb 7.7 18:59:40 10° SSE 19:56:59 58° E 21:49:09 10° NE visible
11 Feb 8.3 23:44:21 10° WSW 01:42:57 64° N 02:58:00 10° E visible
12 Feb 7.3 05:32:43 10° NW 07:22:16 64° WSW 07:43:20 10° S visible
12 Feb 7.8 17:45:22 10° SE 18:43:42 40° ENE 20:17:50 10° NE visible
12 Feb 8.1 22:17:27 10° SW 23:37:20 73° NW 01:30:43 10° ENE visible
13 Feb 7.4 03:48:07 10° WNW 05:59:25 88° WSW 06:23:08 10° SSE visible
13 Feb 8.0 16:39:27 10° E 17:34:22 25° ENE 18:43:53 10° NNE visible
13 Feb 7.9 20:54:00 10° SSW 21:57:18 89° WNW 00:01:39 10° NE visible
14 Feb 7.9 02:04:43 10° WNW 04:29:38 74° NE 05:01:01 10° SE visible
14 Feb 7.8 19:33:13 10° S 20:30:31 72° E 22:31:25 10° NE visible
15 Feb 8.2 00:27:21 10° W 02:48:05 65° NNE 03:36:53 10° E visible
15 Feb 7.1 06:23:08 10° NW 07:55:30 48° W 08:16:58 10° SSW visible
15 Feb 7.7 18:15:20 10° SSE 19:12:18 53° E 21:00:18 10° NE visible
15 Feb 8.3 22:56:25 10° WSW 00:41:10 65° NNW 02:10:33 10° E visible
16 Feb 7.2 04:39:38 10° NW 06:36:11 71° WSW 06:57:49 10° S visible
16 Feb 7.9 17:02:13 10° SE 17:59:55 36° ENE 19:27:46 10° NNE visible
16 Feb 8.1 21:30:07 10° SW 22:42:55 77° NW 00:42:04 10° ENE visible
17 Feb 7.5 02:54:22 10° WNW 05:11:00 86° NE 05:36:33 10° SE visible
17 Feb 8.2 16:00:06 10° E 16:51:00 21° NE 17:51:34 10° NNE visible
17 Feb 7.9 20:06:58 10° SSW 21:07:04 86° ESE 23:11:57 10° NE visible
18 Feb 8.0 01:11:58 10° W 03:37:53 70° NNE 04:13:20 10° ESE visible
18 Feb 7.8 18:46:27 10° S 19:42:37 66° E 21:40:45 10° NE visible
